Probability
11 12 12 10 9 10 12 14 14 14 16 19 18 13 7 4 3 3 3 3 3 3 4 3 1 0 1 0 0 0 0 0 0 0 0 0 0 0 0 0 0 1 2
11 13 13 12 11 11 14 15 15 15 18 20 19 15 8 5 3 3 3 3 3 4 4 4 1 0 1 0 0 0 0 0 0 0 0 0 0 0 0 0 0 1 2
14 15 16 15 13 14 15 17 17 17 19 21 21 16 12 9 6 3 2 3 4 5 6 5 2 0 0 0 1 1 1 0 0 0 0 0 0 0 0 0 0 0 1
19 19 18 17 16 15 15 17 18 19 21 23 22 18 15 13 10 6 4 3 4 5 7 5 1 0 0 0 1 1 1 0 0 0 0 0 0 0 0 0 0 0 0
24 23 20 19 19 17 16 18 20 22 25 26 23 19 17 16 16 13 8 5 4 4 5 4 2 1 0 0 0 0 0 0 0 0 0 0 0 0 0 0 0 0 0
26 25 24 23 22 20 18 19 22 24 27 28 25 20 18 18 19 17 13 9 6 5 5 5 4 3 1 0 0 0 0 0 0 0 0 0 0 0 0 0 0 0 0
24 25 24 23 22 19 18 19 21 22 26 28 25 20 17 18 19 18 15 12 9 6 6 6 6 5 3 1 0 0 1 0 0 0 0 0 0 0 0 0 0 0 0
23 21 19 17 17 15 14 16 19 21 24 26 23 18 16 16 17 16 15 14 11 8 7 7 6 5 4 2 1 1 1 0 0 0 0 0 0 0 0 0 0 0 0
20 17 13 13 14 14 14 15 17 20 22 22 20 16 14 15 16 16 15 14 12 10 9 8 6 5 3 3 3 3 1 1 1 0 0 0 0 0 0 0 0 0 0
13 12 11 12 15 16 17 18 19 19 20 19 18 16 14 13 15 17 17 16 15 13 10 9 7 4 3 4 5 5 3 2 2 1 0 0 0 0 0 0 0 0 0
8 8 11 14 16 17 19 21 22 20 19 19 19 18 16 16 17 19 19 18 17 14 10 8 6 4 4 5 7 5 4 3 3 2 0 0 0 0 1 1 1 1 1
10 9 11 14 15 16 18 20 22 22 21 21 21 20 19 19 18 18 18 17 15 13 9 7 6 4 4 7 8 6 4 3 3 2 0 0 0 1 2 2 2 2 2
14 13 13 14 15 16 16 17 20 22 22 22 20 19 19 20 19 18 16 14 13 11 9 7 6 5 6 6 6 6 5 3 2 1 0 0 0 1 2 3 3 3 3
16 15 14 15 17 18 18 17 19 21 23 23 21 19 19 21 22 19 18 15 13 11 9 7 6 6 7 6 5 4 4 2 1 1 0 0 0 0 1 2 3 3 3
14 15 17 18 20 21 20 19 19 20 21 23 23 22 22 23 24 22 20 18 15 12 10 7 7 7 7 5 3 3 2 1 0 0 0 1 1 1 1 2 3 3 3
13 16 19 21 22 23 22 22 21 21 20 21 22 22 23 25 26 25 23 19 15 12 10 10 9 9 7 3 2 2 1 1 1 0 0 0 1 1 2 3 2 3 3
17 18 18 18 20 22 23 24 23 22 21 21 22 21 22 25 26 26 24 21 17 14 12 11 11 11 7 3 1 0 1 2 2 1 1 1 1 2 3 4 3 3 3
20 18 16 16 17 19 22 25 25 22 22 23 23 21 21 22 24 23 23 23 22 19 15 13 12 10 7 4 1 0 0 1 2 3 3 3 2 3 4 4 4 4 3
19 18 16 17 18 18 20 24 24 22 21 23 24 24 23 23 23 23 23 25 26 23 18 15 13 11 8 5 1 0 0 0 1 2 3 3 2 2 2 2 3 3 3
21 21 20 20 20 19 18 21 22 20 19 22 24 25 25 24 24 24 24 26 27 25 21 17 16 14 12 7 3 1 1 1 1 1 2 2 1 1 0 1 2 3 3
24 24 23 22 19 17 16 16 17 17 17 20 24 25 24 22 22 23 24 25 26 25 23 20 18 17 15 11 6 2 1 2 2 2 2 2 1 0 0 0 1 2 1
24 24 23 21 18 15 13 11 12 14 16 18 21 23 23 21 21 21 22 24 25 24 23 22 20 18 16 12 7 3 1 2 3 3 3 3 2 0 0 0 0 0 0
21 22 22 20 17 15 13 11 11 13 16 17 18 20 21 21 20 18 19 22 24 23 22 22 21 19 17 12 7 2 1 1 1 2 2 2 1 0 0 0 0 0 0
17 19 20 18 15 13 12 11 11 12 15 17 18 18 19 18 17 14 13 16 21 22 22 21 21 19 17 12 6 2 0 0 1 1 2 1 1 1 0 0 0 0 0
14 15 16 14 12 11 11 10 10 11 14 16 17 16 15 14 12 9 7 8 12 16 17 18 18 17 14 10 5 1 0 0 1 2 2 2 2 1 0 0 0 0 0
13 14 14 12 11 10 10 10 10 11 12 15 15 14 12 10 8 6 4 3 6 8 10 12 14 14 12 8 4 1 0 0 1 2 3 3 2 1 0 0 0 0 0
Wind_Speed
9 10 10 10 9 8 8 7 6 5 4 3 3 2 2 1 1 1 1 2 2 2 2 2 1 2 2 1 1 2 1 1 1 2 2 2 1 1 2 3 3 4 4
7 9 9 9 9 9 8 7 7 6 5 4 3 3 3 2 2 1 1 2 2 2 3 2 2 2 2 1 1 2 1 0 1 2 1 2 3 2 0 1 3 3 3
11 10 11 10 9 9 9 8 8 7 6 5 3 3 2 2 1 1 1 1 2 2 2 3 2 2 2 1 1 1 2 1 0 1 3 2 2 2 2 1 1 1 2
9 9 10 9 9 9 9 8 7 7 6 6 5 5 4 3 3 2 1 1 1 2 3 3 3 2 1 1 0 1 1 2 0 1 0 2 3 2 1 2 1 1 1
11 11 12 11 9 8 8 7 7 6 6 6 6 6 4 3 2 2 2 1 1 1 2 2 2 2 2 1 1 1 1 1 1 1 0 0 1 1 2 1 2 1 1
10 9 9 8 7 6 6 7 7 6 6 6 6 6 6 5 4 3 3 2 1 1 1 2 2 2 2 2 1 1 1 1 1 1 1 1 1 1 2 2 1 1 1
9 9 9 8 8 8 7 7 8 6 6 6 6 6 6 6 6 5 4 3 2 1 2 2 2 2 1 1 1 1 1 1 1 1 1 1 1 2 2 2 1 0 1
9 10 11 11 10 10 8 8 8 7 7 7 7 6 6 4 4 5 4 4 3 3 2 2 2 2 2 2 2 1 1 1 1 1 0 0 0 1 2 2 3 1 1
8 9 10 9 9 9 8 8 8 7 7 7 6 5 5 5 4 4 4 3 3 3 3 3 2 2 2 2 2 1 1 1 1 1 1 0 0 0 1 2 3 3 2
6 7 8 9 8 8 8 7 7 7 6 6 6 5 5 5 5 4 5 4 4 3 4 3 3 2 2 2 2 1 1 1 0 1 1 0 0 1 0 1 1 2 3
5 5 5 6 5 5 6 6 6 6 5 5 5 5 5 5 4 4 5 4 4 4 4 3 3 2 2 2 2 2 1 1 0 0 1 0 0 0 1 0 1 1 2
6 5 5 5 5 5 5 5 5 5 5 5 5 5 4 4 4 4 4 4 4 4 4 3 3 3 2 2 3 2 1 1 1 1 0 0 0 1 1 0 0 0 1
6 5 5 5 5 5 5 5 5 5 4 4 4 4 3 3 4 4 4 3 3 3 3 3 3 2 2 2 2 2 1 1 1 1 1 1 1 0 0 0 0 0 0
6 6 5 4 4 4 4 5 5 4 5 4 5 4 4 4 4 3 4 4 4 4 3 3 2 3 2 2 2 2 2 1 1 1 1 1 2 2 2 1 1 0 1
6 6 5 4 4 3 4 5 5 4 5 5 4 4 4 4 3 3 3 4 4 4 3 3 2 2 2 2 3 3 2 2 1 1 1 2 2 2 2 1 1 1 1
5 5 5 4 4 4 4 5 5 5 5 5 4 4 3 3 3 3 3 3 3 3 3 3 3 3 2 3 4 4 3 2 2 2 2 2 1 1 2 2 2 3 2
5 5 4 4 4 4 5 5 5 5 5 5 4 4 4 4 3 3 3 3 3 3 3 3 3 3 3 4 4 5 3 3 3 3 3 2 2 1 1 1 1 2 3
5 4 3 3 3 3 3 4 4 4 5 4 4 4 4 4 3 3 3 3 3 3 3 3 4 3 3 4 4 4 3 3 3 3 3 3 2 2 2 2 1 2 2
4 4 3 3 3 3 3 4 4 4 4 4 4 4 4 4 3 3 4 3 3 3 3 3 4 4 4 5 5 4 2 2 3 3 2 3 2 3 2 2 2 2 3
3 3 2 3 3 2 3 4 4 4 4 5 4 4 4 4 4 4 4 3 3 3 3 2 3 4 4 6 6 5 2 2 2 1 2 4 4 3 3 3 3 3 4
3 3 4 3 2 2 3 3 3 4 4 4 3 3 3 3 4 3 3 2 3 2 2 3 2 3 4 5 6 6 3 3 2 2 2 3 4 4 4 3 3 5 4
4 3 3 2 1 2 3 3 2 3 2 3 3 3 3 3 2 2 2 2 3 3 2 2 2 2 3 4 6 7 6 5 4 4 3 4 5 5 5 4 4 5 2
3 2 3 3 3 2 3 2 1 1 2 3 2 2 2 2 2 2 2 2 2 2 2 2 2 2 2 2 5 6 6 6 4 4 5 5 6 5 4 5 5 3 2
3 3 4 4 3 3 3 1 1 1 3 2 2 2 2 1 0 1 2 2 2 2 2 3 3 2 2 2 2 2 3 4 3 3 4 4 4 3 3 3 3 2 3
2 3 3 3 1 1 2 2 2 2 2 2 1 1 1 2 1 1 1 2 2 4 4 3 3 3 3 5 6 4 3 3 4 2 1 1 1 2 2 2 2 2 2
2 2 2 2 1 1 2 2 2 1 2 2 1 1 1 1 1 1 1 2 1 3 4 4 4 4 5 6 6 6 6 6 4 3 2 3 3 4 4 4 3 3 3
Wind_Direction
180 167 164 163 159 157 158 162 159 164 157 151 151 141 153 158 141 137 134 132 133 135 130 124 113 104 103 117 117 114 93 50 65 65 19 351 312 197 196 193 186 193 195
170 168 166 168 167 168 168 166 166 166 167 170 167 155 151 161 162 154 123 137 125 128 137 124 125 114 107 83 75 102 96 34 92 121 88 6 351 342 252 185 187 201 192
176 173 171 173 168 174 176 173 173 169 169 160 141 121 95 78 87 110 163 175 144 133 122 122 119 105 117 127 120 130 133 156 315 133 139 146 228 302 332 320 174 180 186
177 171 168 172 176 181 175 170 172 169 168 157 149 148 151 159 180 174 163 143 133 137 135 136 125 126 116 104 109 116 133 136 176 324 94 159 168 162 311 340 347 205 188
180 178 175 177 178 175 171 171 168 170 167 162 162 158 163 172 161 144 135 146 148 157 151 147 150 142 131 133 124 89 110 138 155 162 166 63 65 116 141 270 319 339 302
172 169 166 161 163 164 167 167 163 172 172 166 166 168 170 170 155 156 158 168 172 179 160 149 158 147 145 159 159 145 114 121 122 129 131 145 152 182 150 179 234 270 290
160 157 158 162 166 170 174 172 167 172 173 171 175 179 178 176 177 177 174 169 170 180 191 165 156 158 168 158 142 120 109 115 116 139 167 161 181 175 158 151 178 231 311
159 164 170 172 172 176 177 174 175 178 179 180 186 185 182 180 182 181 176 178 181 188 180 167 160 165 167 155 140 140 157 129 135 129 131 117 242 174 159 161 150 125 340
159 163 171 171 172 174 177 177 178 181 183 184 182 180 182 178 177 174 173 175 179 175 164 165 169 175 174 170 155 150 185 148 149 153 124 110 298 30 175 152 151 154 171
144 155 168 168 171 172 173 174 174 176 177 178 179 180 184 186 178 169 175 178 179 169 164 167 176 176 170 161 154 158 179 126 153 158 108 70 344 350 4 134 145 153 159
148 147 147 151 156 157 163 167 172 171 170 173 176 177 186 186 179 179 184 179 171 162 167 173 176 178 170 156 143 156 147 135 316 305 138 183 332 4 344 18 96 119 137
157 143 142 137 138 148 161 166 171 176 183 179 174 179 178 171 170 178 180 171 167 163 163 164 162 169 167 165 162 170 158 168 212 239 133 257 57 38 358 32 58 130 155
144 132 131 140 150 158 169 174 174 175 177 167 163 164 170 170 177 179 174 168 163 157 153 155 161 169 174 174 171 170 182 193 207 204 191 224 128 346 310 358 27 242 94
141 139 142 147 155 164 172 172 179 175 167 162 162 165 176 180 181 174 173 171 164 158 161 160 166 173 173 167 164 161 179 197 211 212 213 219 184 204 214 212 221 178 90
145 151 156 154 150 158 173 177 176 173 163 154 157 172 177 173 169 171 177 172 166 167 163 153 170 182 174 173 167 173 178 186 202 257 244 236 208 194 207 204 193 159 149
162 161 158 152 157 169 171 169 170 170 154 154 166 171 166 169 178 185 177 169 166 164 160 167 180 184 194 179 175 176 190 197 205 231 252 262 255 253 247 225 198 182 183
159 159 161 165 173 178 172 169 174 160 153 159 166 169 170 174 186 179 161 172 179 171 177 182 182 193 205 196 191 188 189 210 220 223 234 255 257 246 234 257 268 251 239
153 162 166 170 169 163 155 151 150 151 156 164 169 169 167 172 174 165 172 187 177 176 189 193 192 193 208 201 201 202 200 217 228 226 218 222 243 244 219 214 247 267 267
149 153 157 160 148 138 143 136 138 149 158 172 180 178 172 173 176 186 196 191 179 186 197 198 194 198 216 208 209 196 189 224 249 243 219 208 217 246 216 188 230 282 293
114 121 115 107 116 132 129 133 145 153 178 186 182 177 171 176 189 194 197 192 184 191 189 205 210 203 211 211 207 191 183 214 243 258 238 224 223 232 204 190 204 241 269
103 111 120 122 138 133 124 141 156 186 198 183 168 164 171 188 193 188 190 186 181 181 191 209 221 213 215 214 208 194 185 200 212 227 238 243 233 230 223 212 212 232 243
83 98 107 104 102 116 124 138 192 212 174 153 160 173 188 197 181 175 189 178 170 181 204 216 246 246 233 219 214 207 207 202 198 221 228 235 236 234 238 240 243 248 249
84 81 90 74 44 55 105 122 250 176 137 143 168 185 189 195 171 166 178 176 176 184 207 211 234 254 255 236 224 218 217 212 209 225 234 246 245 242 245 250 248 233 218
80 72 76 73 53 33 42 49 31 101 120 139 170 174 166 165 140 161 169 175 191 196 209 215 225 239 239 236 226 223 223 221 229 237 249 262 255 248 254 260 246 224 221
80 92 104 104 89 52 35 21 31 73 101 108 108 118 142 147 136 146 189 182 215 214 205 212 207 206 228 233 219 210 216 216 223 205 198 234 251 250 260 268 262 248 245
98 94 96 98 74 46 36 12 7 67 98 95 90 117 123 161 145 136 348 336 286 267 241 227 214 228 234 230 223 224 229 231 217 177 205 224 228 232 236 241 250 245 240